Weather in Leun

Russia / Perm Krai     56°13′42″N   56°47′43″E
temp.,
°C
wind,
m/s
gust,
m/s
humid.,
%
clouds,
%
prec.,
mm/h
press.,
hPa
HPBL,
m
2 march, tue
tue223:00−16sw2498100 0.1 101790
02:00−18sw3799100 0.1 1016191
05:00−20ssw41099100 0.1 1014282
08:00−19ssw51297100 0.1 1012383
11:00−16s61491100 0.1 1009429
14:00−13ssw71493100 0.6 1005568
17:00−12ssw71493100 1.7 1002694
20:00−11ssw61492100 0.6 1001641
3 march, wed
wed323:00−9ssw61593100 1.3 1000652
02:00−7ssw61492100 1.2 997638
05:00−5ssw61295100 1.9 997548
08:00−4sw51195100 1.4 996581
11:00−3wsw5995100 2.4 997630
14:00−2wsw4794100 0.6 997654
17:00−3wsw3693100 0.8 998568
20:00−4wsw2597100 0.1 998269
4 march, thu
thu423:00−4sw4996100 1.2 999479
02:00−5w4896100 1.4 999447
05:00−9w3895100 1.9 1000335
08:00−13wsw3796100 0.2 1001244
11:00−11wsw4894100 0.4 1002353
14:00−8sw5993100 0.3 1001534
17:00−6sw51093100 1.0 1001745
20:00−7ssw51193100 0.3 1000632
5 march, fri
fri523:00−7ssw61394100 1.3 999787
02:00−6ssw71494100 2.1 995874
05:00−2ssw61396100 5.3 992991
08:00−2wsw71496100 2.8 9911056
11:00−2w81487100 3.9 9941369
14:00−4w599199 0.1 997788
17:00−5w4892100 0.3 1002796
20:00−6w3895100 0.4 1005508
6 march, sat
sat623:00−9wnw3895100 0.7 1009379
02:00−13w2598100 0.1 1011128
05:00−17wsw2299100 0.2 101441
08:00−19sw23100100 0.1 101562
11:00−15ssw2497100 0.1 1014263
14:00−7e4894100 0.6 1003458
17:00−7ene4995100 4.4 998493
20:00−7nne4895100 4.9 996293